This is the latest recevied weather packets stored in our database for station/object KD8DNS. If no packets are shown the sender has not sent any weather packets the latest 10 day(s).
| Time | Temp. | Humidity | Pressure | Rain* | Wind** | Luminosity | Snow |
|---|---|---|---|---|---|---|---|
| 1788136095 | 78° F | 78% | 766.1 mmHg | 0 in | - | 0 W/m² | - |
| 1788135789 | 79° F | 76% | 766.1 mmHg | 0 in | - | 0 W/m² | - |
| 1788135485 | 79° F | 76% | 766.1 mmHg | 0 in | - | 0 W/m² | - |
| 1788135185 | 80° F | 76% | 765.9 mmHg | 0 in | - | 0 W/m² | - |
| 1788134883 | 80° F | 74% | 766 mmHg | 0 in | - | 0 W/m² | - |
| 1788134582 | 81° F | 73% | 766.1 mmHg | 0 in | - | 0 W/m² | - |
| 1788134281 | 81° F | 72% | 766.2 mmHg | 0 in | - | 2 W/m² | - |
| 1788133975 | 82° F | 71% | 765.9 mmHg | 0 in | - | 3 W/m² | - |
| 1788133670 | 83° F | 68% | 765.8 mmHg | 0 in | - | 5 W/m² | - |
| 1788133367 | 84° F | 67% | 766 mmHg | 0 in | - | 9 W/m² | - |
| 1788133062 | 84° F | 65% | 766 mmHg | 0 in | - | 12 W/m² | - |
| 1788132758 | 85° F | 65% | 766 mmHg | 0 in | - | 16 W/m² | - |
| 1788132453 | 85° F | 64% | 765.9 mmHg | 0 in | - | 19 W/m² | - |
| 1788132148 | 85° F | 63% | 765.8 mmHg | 0 in | - | 23 W/m² | - |
| 1788131845 | 86° F | 62% | 765.7 mmHg | 0 in | - | 25 W/m² | - |
| 1788131544 | 86° F | 63% | 765.7 mmHg | 0 in | - | 31 W/m² | - |
| 1788131239 | 86° F | 62% | 765.4 mmHg | 0 in | - | 29 W/m² | - |
| 1788130934 | 86° F | 61% | 765.4 mmHg | 0 in | - | 31 W/m² | - |
| 1788130629 | 86° F | 60% | 765.4 mmHg | 0 in | - | 36 W/m² | - |
| 1788130329 | 87° F | 60% | 765.4 mmHg | 0 in | - | 39 W/m² | - |
| 1788130028 | 87° F | 60% | 765.5 mmHg | 0 in | - | 42 W/m² | - |
| 1788129725 | 87° F | 60% | 765.7 mmHg | 0 in | - | 45 W/m² | - |
| 1788129421 | 87° F | 60% | 765.5 mmHg | 0 in | - | 46 W/m² | - |
| 1788129116 | 87° F | 60% | 765.7 mmHg | 0 in | - | 46 W/m² | - |
| 1788128810 | 87° F | 60% | 765.5 mmHg | 0 in | - | 47 W/m² | - |
* Rain latest hour (hover to see other rain measurements)
** Current wind speed in m/s (hover to see current wind gust speed)